TimeCST,TemperatureF,Dew PointF,Humidity,Sea Level PressureIn,VisibilityMPH,Wind Direction,Wind SpeedMPH,Gust SpeedMPH,PrecipitationIn,Events,Conditions,WindDirDegrees,DateUTC
12:53 AM,23.0,17.1,78,30.25,10.0,WSW,9.2,-,N/A,,Clear,250,2012-11-12 06:53:00
1:53 AM,24.1,17.1,75,30.25,10.0,WSW,10.4,-,N/A,,Clear,250,2012-11-12 07:53:00
2:53 AM,24.1,16.0,71,30.26,10.0,WSW,11.5,-,N/A,,Clear,250,2012-11-12 08:53:00
3:53 AM,24.1,16.0,71,30.28,10.0,West,11.5,-,N/A,,Clear,260,2012-11-12 09:53:00
4:53 AM,24.1,16.0,71,30.29,10.0,West,9.2,-,N/A,,Clear,260,2012-11-12 10:53:00
5:53 AM,21.2,15.8,80,30.27,10.0,West,8.1,-,N/A,,Clear,260,2012-11-12 11:53:00
6:53 AM,23.0,15.1,72,30.31,10.0,WSW,9.2,-,N/A,,Clear,240,2012-11-12 12:53:00
7:53 AM,25.0,16.0,69,30.34,10.0,SW,5.8,-,N/A,,Clear,230,2012-11-12 13:53:00
8:53 AM,30.0,18.0,61,30.35,10.0,West,15.0,21.9,N/A,,Clear,270,2012-11-12 14:53:00
9:53 AM,34.0,21.0,59,30.36,10.0,West,16.1,-,N/A,,Clear,260,2012-11-12 15:53:00
10:53 AM,37.0,21.0,52,30.36,10.0,West,13.8,-,N/A,,Clear,270,2012-11-12 16:53:00
11:53 AM,41.0,21.0,45,30.35,10.0,West,19.6,25.3,N/A,,Clear,280,2012-11-12 17:53:00
12:53 PM,43.0,19.9,40,30.33,10.0,West,21.9,27.6,N/A,,Clear,280,2012-11-12 18:53:00
1:53 PM,44.1,19.9,38,30.33,10.0,West,23.0,28.8,N/A,,Clear,280,2012-11-12 19:53:00
2:53 PM,44.1,18.0,35,30.33,10.0,WNW,18.4,25.3,N/A,,Clear,290,2012-11-12 20:53:00
3:53 PM,44.1,17.1,34,30.35,10.0,WNW,16.1,-,N/A,,Clear,290,2012-11-12 21:53:00
4:53 PM,39.0,19.9,46,30.37,10.0,WNW,8.1,-,N/A,,Clear,290,2012-11-12 22:53:00
5:53 PM,36.0,19.0,50,30.38,10.0,West,3.5,-,N/A,,Clear,280,2012-11-12 23:53:00
6:53 PM,33.1,19.0,56,30.39,10.0,Calm,Calm,-,N/A,,Clear,0,2012-11-13 00:53:00
7:53 PM,33.1,19.0,56,30.40,10.0,Calm,Calm,-,N/A,,Clear,0,2012-11-13 01:53:00
8:53 PM,30.0,19.0,64,30.41,10.0,South,4.6,-,N/A,,Clear,170,2012-11-13 02:53:00
9:53 PM,28.0,19.0,69,30.42,10.0,Calm,Calm,-,N/A,,Clear,0,2012-11-13 03:53:00
10:53 PM,25.0,19.0,78,30.43,10.0,Calm,Calm,-,N/A,,Clear,0,2012-11-13 04:53:00
11:53 PM,27.0,19.0,72,30.42,10.0,South,4.6,-,N/A,,Clear,170,2012-11-13 05:53:00